Weather History for Aspen, CO

Change the Weather History Date:

Thursday, February 6, 2014

  Actual Average Record
Temperature  
Mean Temperature 18 °F 21 °F  
Max Temperature 28 °F 34 °F 48 °F (1987)
Min Temperature 8 °F 8 °F -24 °F (1989)
Degree Days  
Heating Degree Days 47 44  
Month to date heating degree days 312 269  
Since 1 July heating degree days 5386 5391  
Cooling Degree Days 0 0  
Month to date cooling degree days 0 0  
Year to date cooling degree days 0 0  
Moisture  
Dew Point 12 °F    
Average Humidity 70    
Maximum Humidity 84    
Minimum Humidity 55    
Precipitation  
Precipitation T in 0.04 in 0.13 in (1983)
Month to date precipitation 0.15 0.21  
Year to date precipitation 2.56 1.24  
Sea Level Pressure  
Sea Level Pressure 29.89 in    
Wind  
Wind Speed 3 mph (WSW)    
Max Wind Speed 9 mph    
Max Gust Speed 10 mph    
Visibility 10 miles    
Events Snow    
T = Trace of Precipitation, MM = Missing Value Source: NWS Daily Summary

Daily Weather History Graph

Daily Weather History Graph

Search for Another Location

Airport:

Trip Planner

Search our weather history database for the weather conditions in past years. The results will help you decide how hot, cold, wet, or windy it might be!

Date:

Astronomy

Feb. 06, 2014 Rise Set
Actual Time 7:09 AM MST 5:34 PM MST
Civil Twilight 6:41 AM MST 6:02 PM MST
Nautical Twilight 6:09 AM MST 6:33 PM MST
Astronomical Twilight 5:38 AM MST 7:05 PM MST
Moon 11:08 AM MST (2/6) 12:28 AM MST (2/6)
Length of Visible Light 11h 20m
Length of Day
10h 24m
Waxing Crescent, 50% of the Moon is Illuminated
Feb 6
Waxing Crescent
Feb 6
First Quarter
Feb 14
Full
Feb 22
Last Quarter
Mar 1
New

Hourly Weather History & Observations

Time (MST) Temp. Windchill Dew Point Humidity Pressure Visibility Wind Dir Wind Speed Gust Speed Precip Events Conditions
12:53 AM 9.0 °F 2.4 °F 3.0 °F 77% 29.98 in 10.0 mi SSW 3.5 mph - N/A   Overcast
1:53 AM 10.0 °F 3.6 °F 3.9 °F 76% 29.97 in 10.0 mi SSW 3.5 mph - N/A   Overcast
2:53 AM 12.0 °F 1.5 °F 5.0 °F 73% 29.95 in 10.0 mi South 6.9 mph - N/A   Overcast
3:53 AM 12.0 °F 4.1 °F 6.1 °F 77% 29.96 in 10.0 mi SW 4.6 mph - N/A   Overcast
4:53 AM 12.0 °F 2.7 °F 6.1 °F 77% 29.97 in 10.0 mi South 5.8 mph - N/A   Overcast
5:53 AM 12.9 °F 5.2 °F 7.0 °F 77% 30.00 in 10.0 mi SSW 4.6 mph - N/A   Overcast
6:36 AM 15.1 °F 9.4 °F 9.0 °F 77% 29.84 in 1.8 mi SSW 3.5 mph - N/A   Haze
6:53 AM 14.0 °F - 9.0 °F 80% 30.00 in 10.0 mi Calm Calm - 0.00 in   Overcast
7:53 AM 15.1 °F 7.7 °F 9.0 °F 77% 29.99 in 10.0 mi South 4.6 mph - 0.00 in   Overcast
8:53 AM 17.1 °F 8.7 °F 10.0 °F 74% 30.00 in 10.0 mi SSW 5.8 mph - N/A   Overcast
9:53 AM 19.0 °F 13.9 °F 12.0 °F 74% 29.99 in 10.0 mi SSW 3.5 mph - N/A   Overcast
10:53 AM 23.0 °F - 10.9 °F 60% 29.96 in 10.0 mi Calm Calm - N/A   Overcast
11:53 AM 24.1 °F 19.7 °F 10.0 °F 55% 29.94 in 10.0 mi NNW 3.5 mph - N/A   Overcast
12:53 PM 26.1 °F 19.4 °F 12.9 °F 58% 29.90 in 10.0 mi North 5.8 mph - N/A   Overcast
1:53 PM 27.0 °F 18.7 °F 14.0 °F 58% 29.87 in 10.0 mi North 8.1 mph - N/A   Overcast
2:25 PM 26.1 °F 18.4 °F 12.9 °F 58% 29.81 in 1.8 mi NNW 6.9 mph - N/A   Haze
2:32 PM 25.0 °F 17.1 °F 12.9 °F 60% 29.81 in 10.0 mi NNW 6.9 mph - N/A   Overcast
2:53 PM 27.0 °F 20.5 °F 12.9 °F 56% 29.85 in 10.0 mi North 5.8 mph - N/A   Overcast
3:53 PM 26.1 °F 20.5 °F 14.0 °F 60% 29.86 in 10.0 mi NNE 4.6 mph - N/A   Overcast
4:53 PM 25.0 °F 19.3 °F 15.1 °F 66% 29.87 in 10.0 mi North 4.6 mph - N/A   Overcast
5:53 PM 21.9 °F - 16.0 °F 78% 29.88 in 10.0 mi Calm Calm - N/A   Overcast
6:53 PM 21.0 °F - 15.1 °F 78% 29.89 in 10.0 mi Calm Calm - N/A   Overcast
7:53 PM 21.0 °F - 16.0 °F 81% 29.88 in 9.0 mi Calm Calm - 0.00 in Snow Light Snow
8:53 PM 19.0 °F 13.9 °F 15.1 °F 85% 29.88 in 10.0 mi West 3.5 mph - 0.00 in   Overcast
9:53 PM 18.0 °F - 14.0 °F 84% 29.86 in 10.0 mi Calm Calm - N/A   Overcast
10:29 PM 18.0 °F - 14.0 °F 84% 29.80 in 10.0 mi Calm Calm - N/A   Overcast
10:53 PM 18.0 °F - 14.0 °F 84% 29.83 in 10.0 mi Calm Calm - N/A   Overcast
11:04 PM 18.0 °F - 14.0 °F 84% 29.80 in 10.0 mi Calm Calm - N/A   Overcast
11:20 PM 17.1 °F - 14.0 °F 88% 29.80 in 10.0 mi Calm Calm - N/A   Overcast
11:29 PM 17.1 °F - 14.0 °F 88% 29.80 in 10.0 mi Calm Calm - N/A   Overcast
11:37 PM 17.1 °F - 14.0 °F 88% 29.80 in 10.0 mi Calm Calm - N/A   Overcast
11:53 PM 18.0 °F - 14.0 °F 84% 29.83 in 10.0 mi Calm Calm - N/A   Mostly Cloudy